Dewpoint
20 21 21 21 21 20 19 16 14 13 12 13 14 17 18 24 38 44 45 47 51 54 56 57 60 61 61 61 62 63 63 63 64 65 66 66 65 65 65 65 64 65 64
22 21 21 22 22 22 20 18 17 16 14 14 15 17 19 20 25 35 40 42 44 46 51 53 55 56 57 58 59 59 61 62 62 63 64 65 65 65 64 64 64 64 64
22 22 22 22 22 23 22 20 19 20 19 18 16 17 18 17 19 21 22 24 28 34 41 47 50 52 53 55 55 57 57 58 60 62 63 64 64 65 65 65 64 64 64
21 22 22 22 22 22 22 21 21 18 20 21 20 20 17 16 18 19 21 22 22 23 27 32 39 45 48 50 52 52 53 55 58 59 59 62 63 63 64 64 65 65 64
21 22 22 22 22 21 20 20 20 21 19 19 20 21 21 18 17 16 18 20 21 20 21 24 27 34 39 44 46 48 49 52 55 56 57 58 60 61 62 63 63 63 64
20 21 21 20 22 21 21 21 19 20 20 16 17 18 19 20 19 18 16 18 19 19 20 20 22 23 31 38 42 44 46 48 51 51 52 53 55 56 57 59 59 60 61
20 20 20 19 20 18 17 18 19 19 19 21 21 20 19 18 17 17 17 17 16 17 16 17 20 21 23 28 37 40 42 44 47 49 49 49 50 53 54 55 56 56 56
19 19 19 19 19 19 18 18 19 18 19 20 19 19 18 18 18 17 17 14 14 16 17 16 17 19 22 23 31 36 39 41 41 43 44 44 45 47 49 51 52 52 52
20 19 19 19 19 20 19 18 18 18 17 17 17 17 14 15 17 18 17 16 14 15 17 16 17 18 19 23 30 32 35 37 38 40 40 41 42 43 45 46 47 49 48
19 19 19 19 18 20 16 16 18 18 18 15 17 17 16 15 14 13 16 16 15 15 16 16 16 16 18 23 29 29 32 34 36 37 38 39 39 40 41 42 43 44 44
19 19 18 18 18 19 18 18 17 17 17 16 16 16 14 14 14 12 13 14 15 16 17 16 16 17 19 22 25 28 29 31 33 35 36 37 37 38 38 39 39 40 40
19 18 18 18 18 18 18 18 18 17 16 16 16 16 16 15 14 14 13 13 11 14 15 16 16 18 19 22 24 27 27 29 30 32 34 35 35 35 35 37 37 38 38
18 17 17 17 17 18 18 18 17 16 16 16 15 16 16 17 17 16 15 15 14 14 14 15 16 17 18 21 24 25 26 26 27 30 32 34 33 33 34 34 35 36 36
18 18 18 18 19 19 18 17 16 15 15 16 15 16 16 17 17 18 17 16 15 15 14 12 16 16 19 21 21 22 22 24 25 28 31 32 32 32 32 32 33 33 34
17 17 17 17 17 17 16 15 15 15 15 15 15 16 16 16 17 18 18 18 17 16 15 14 15 18 18 19 20 21 22 22 24 27 29 30 30 31 32 32 32 33 33
17 17 17 16 16 16 16 15 15 15 15 15 15 15 15 16 17 18 18 19 18 18 16 18 18 18 18 19 20 21 21 22 23 25 26 28 29 30 30 31 32 32 33
18 18 17 17 16 16 15 15 15 15 15 15 15 15 15 16 16 17 18 19 18 19 18 18 19 19 18 19 20 21 22 21 23 23 24 25 27 28 29 30 31 32 33
18 18 17 16 16 16 15 15 15 14 15 15 15 15 15 15 16 17 17 17 18 19 18 18 19 18 18 19 20 21 21 20 22 22 24 25 26 27 29 30 31 32 32
16 15 16 16 16 16 16 16 16 16 16 15 16 15 15 15 15 16 17 17 18 18 18 18 18 21 21 20 20 21 21 22 23 22 24 23 23 24 25 27 28 30 30
17 15 16 16 16 16 16 16 15 15 14 15 15 16 16 16 16 17 17 17 17 18 18 19 20 21 21 21 21 20 20 23 23 23 23 23 23 24 23 25 26 28 29
20 18 16 16 16 15 15 15 14 14 13 14 15 16 17 18 19 19 18 18 19 18 18 19 19 19 20 21 20 20 21 22 23 24 23 23 21 22 23 25 25 25 26
20 19 18 18 17 17 15 17 17 17 19 20 19 20 20 20 20 20 20 22 25 21 20 19 19 19 19 20 22 23 23 23 23 24 23 22 22 21 21 24 25 24 25
20 20 18 19 19 19 18 18 18 20 20 21 21 21 21 21 20 20 20 20 21 23 26 26 22 22 24 27 24 21 21 24 25 25 23 21 21 20 23 23 23 24 25
19 18 19 19 18 19 18 18 18 19 20 20 20 20 20 21 21 20 20 19 19 19 19 19 18 20 21 21 21 21 21 22 22 23 23 21 22 23 24 26 27 26 24
19 19 19 18 17 17 18 18 18 19 19 19 19 18 18 19 20 18 20 19 20 21 21 20 20 20 21 23 24 26 26 26 24 24 25 27 27 24 26 23 21 21 20
17 17 18 18 18 17 19 19 18 20 18 19 19 19 19 18 19 19 19 17 18 20 22 23 23 24 24 24 24 24 24 22 23 22 22 21 21 21 18 19 19 20 24
Wind_Speed
10 9 10 11 10 11 11 9 9 10 11 11 12 12 12 11 12 11 13 22 23 23 23 23 24 24 22 22 21 22 18 16 17 16 12 7 2 2 6 6 7 7 6
10 10 10 11 11 9 9 10 10 9 10 11 11 12 12 12 12 13 10 14 21 22 22 22 22 22 20 20 20 21 19 17 16 15 14 14 10 3 2 5 6 6 6
11 11 12 12 8 6 7 7 8 8 10 10 12 12 11 12 13 14 13 14 11 16 19 20 20 20 19 19 19 19 19 18 17 18 18 15 14 10 7 3 2 6 6
10 11 13 10 8 8 9 10 8 8 10 11 10 11 11 11 12 12 13 13 13 12 13 16 17 19 18 18 18 17 17 17 16 16 18 18 18 17 15 12 10 7 2
12 13 12 9 10 10 10 9 10 7 8 8 11 10 10 9 9 11 11 12 11 11 11 11 14 16 17 17 16 15 14 14 14 17 18 19 21 22 19 19 16 17 15
12 13 11 9 8 10 11 10 10 11 8 7 10 10 8 8 10 9 9 9 8 9 8 9 10 10 14 16 17 14 13 12 12 13 14 16 18 18 18 20 19 19 18
12 13 12 11 13 12 9 8 7 10 11 11 5 6 6 7 8 6 7 8 7 6 8 9 9 9 9 13 15 14 12 10 10 13 15 15 15 15 16 16 18 17 18
11 11 12 11 11 11 10 10 8 7 6 10 3 4 4 2 4 5 6 5 6 6 8 9 9 9 8 9 9 14 14 12 10 10 10 12 12 13 12 13 14 15 15
12 12 12 11 11 11 11 10 9 10 5 7 10 4 2 3 5 1 3 5 6 6 7 6 7 7 8 10 12 11 12 11 10 10 10 11 11 10 10 10 11 12 13
12 12 12 13 12 11 11 9 10 10 8 7 5 7 7 4 3 3 2 3 2 4 5 6 5 5 6 6 8 9 9 10 10 10 9 8 8 9 9 9 9 10 11
12 11 12 12 12 12 12 11 11 11 11 10 9 4 4 3 4 3 3 2 2 3 4 2 3 3 6 6 8 7 7 7 8 8 8 8 7 7 8 9 10 11 10
11 10 10 11 11 11 10 10 9 10 8 8 7 8 8 4 6 5 3 3 2 1 1 1 2 2 4 4 4 6 8 7 7 8 8 8 8 8 10 11 11 10 10
10 9 9 10 10 11 10 8 9 8 7 7 7 7 6 6 6 5 4 3 3 2 1 2 5 4 1 4 4 8 10 7 8 7 7 7 8 8 9 9 9 10 10
10 9 10 10 10 9 8 7 6 5 5 5 6 5 5 5 4 4 3 4 3 2 4 2 4 4 4 5 4 6 8 11 10 10 11 9 8 8 8 8 8 8 9
10 9 8 10 9 8 6 5 4 4 4 3 2 2 1 1 1 2 2 2 1 2 2 5 3 4 3 0 3 4 4 10 12 13 12 11 10 10 10 10 9 9 9
11 10 9 8 8 7 5 4 3 3 2 1 1 3 2 1 1 1 2 2 2 2 4 3 4 8 7 8 9 10 7 10 10 12 12 12 12 12 12 13 12 11 11
10 9 8 8 6 6 5 3 1 2 1 2 1 3 3 2 3 3 4 4 5 5 9 10 7 9 8 10 12 12 9 8 10 12 12 12 13 14 14 15 15 15 14
10 9 8 8 7 6 5 4 2 2 3 5 4 4 4 4 5 6 6 7 7 7 9 14 10 9 8 10 13 16 14 11 11 12 15 15 15 16 16 16 17 17 16
11 10 8 8 7 6 5 5 5 5 6 6 7 6 6 6 7 7 7 8 8 9 10 11 11 5 7 10 12 13 14 12 11 14 16 15 13 14 15 15 16 17 17
11 10 9 8 7 7 7 7 7 6 7 8 9 8 8 8 8 8 8 9 8 10 10 10 9 11 9 11 11 15 14 12 14 12 12 13 16 15 18 18 17 16 16
8 9 8 7 6 6 6 7 7 8 9 9 9 10 10 12 12 12 10 11 9 9 10 10 10 11 13 12 12 12 12 13 13 12 13 12 9 13 15 16 16 17 16
8 5 5 5 5 5 9 11 9 7 8 10 12 11 11 14 14 16 17 16 15 16 17 14 14 14 16 15 11 12 13 13 13 11 11 14 10 13 14 14 17 22 24
9 9 8 5 7 7 11 12 12 9 10 13 13 12 13 13 16 13 16 16 16 17 18 17 19 17 15 11 13 14 15 14 12 12 12 16 12 16 14 15 22 24 24
8 7 9 10 9 9 12 13 13 10 11 13 13 14 14 13 13 13 14 15 14 14 14 14 14 13 14 15 16 16 17 15 14 13 15 21 13 16 14 13 19 21 22
9 9 8 7 10 12 13 14 13 9 10 12 12 13 14 15 15 18 15 15 14 13 16 20 22 23 25 25 23 16 15 14 17 16 12 12 11 13 10 12 12 20 27
7 6 7 9 12 13 13 13 13 9 14 12 12 13 18 17 19 21 17 17 16 18 14 15 16 18 18 14 18 15 13 17 17 18 13 15 12 6 9 10 16 14 11
Wind_Direction
101 95 85 71 61 51 50 49 70 78 75 68 66 58 60 70 73 83 60 53 52 53 51 50 56 55 63 61 61 61 58 55 51 64 68 64 75 210 207 186 169 172 170
98 97 94 85 68 64 67 61 55 61 79 85 78 80 64 57 64 75 81 61 53 45 47 46 54 52 55 56 55 59 55 54 51 50 55 60 57 42 231 206 196 189 188
96 92 88 81 75 65 73 78 73 76 68 71 76 70 73 71 58 53 52 45 43 51 44 42 44 49 47 49 51 52 51 49 48 51 53 61 62 62 64 62 218 217 223
92 91 87 79 72 68 67 51 49 81 82 84 71 68 75 73 78 70 60 49 44 44 45 46 41 42 41 43 43 43 45 41 47 55 53 46 60 62 65 74 72 63 71
89 87 83 70 68 63 56 74 45 46 85 92 92 75 73 67 73 77 77 66 54 50 40 34 44 43 39 39 36 35 42 40 42 52 52 47 52 55 62 65 71 70 67
92 96 90 72 69 69 54 65 78 53 52 52 88 80 74 75 70 70 78 83 72 63 54 44 43 39 41 36 34 34 42 44 44 50 52 48 45 50 52 60 61 62 65
115 106 104 88 77 78 65 53 56 85 41 19 104 92 73 64 86 92 87 82 71 72 56 53 47 45 40 43 36 35 31 35 49 43 41 41 43 44 43 52 55 58 55
119 116 110 108 109 97 79 62 58 90 65 37 31 162 150 97 79 65 65 77 66 72 61 52 50 39 48 58 48 39 31 27 27 22 24 28 27 29 33 38 40 50 47
91 96 101 95 85 94 82 66 53 54 97 48 50 80 124 90 138 131 105 74 53 65 69 47 69 48 43 64 58 38 33 23 24 20 21 11 13 16 18 17 28 35 28
104 102 98 94 86 85 82 73 54 45 62 76 60 46 66 74 105 130 134 146 158 88 79 46 67 93 61 85 92 53 28 16 16 12 11 5 4 360 360 0 5 1 4
113 106 101 99 93 90 85 77 68 59 49 61 59 31 28 49 46 70 124 203 254 175 130 101 53 60 91 73 80 50 21 5 10 4 353 346 350 354 350 343 338 334 335
118 109 105 101 96 101 96 90 83 72 62 68 60 60 53 39 35 33 34 35 33 42 105 353 170 138 99 103 91 34 4 2 359 355 350 341 337 343 337 333 327 322 324
125 121 109 105 97 89 82 77 78 77 63 61 61 57 56 51 47 27 30 344 1 328 353 195 141 108 142 79 69 11 350 342 343 339 338 337 340 330 322 319 321 320 318
133 126 112 101 91 88 81 75 78 82 76 65 67 58 48 39 53 52 45 33 349 312 239 200 156 131 95 83 8 344 340 326 322 324 325 322 315 307 305 306 311 316 316
128 133 130 118 111 106 101 93 80 90 81 57 39 105 106 345 30 32 31 32 61 336 324 34 100 73 47 13 303 305 278 300 302 307 306 304 305 304 301 298 298 299 301
131 140 135 130 132 128 123 117 109 106 94 77 81 12 344 318 303 272 263 246 259 230 256 346 349 336 354 344 326 317 278 280 288 295 294 291 293 294 297 297 294 292 291
138 145 148 142 149 156 149 154 214 127 145 303 298 228 271 288 293 269 259 248 253 253 261 285 301 314 321 322 314 313 305 301 285 285 289 285 283 284 288 291 291 291 291
153 156 165 168 171 172 168 172 214 235 247 258 266 274 267 264 256 259 266 261 257 245 250 270 283 296 309 316 309 310 300 286 280 290 290 285 284 285 285 285 285 285 285
156 164 171 174 183 182 195 200 208 229 239 247 250 246 247 256 259 260 261 257 250 251 252 258 277 291 291 293 295 293 288 291 275 282 289 286 289 295 293 288 284 281 283
160 162 170 183 200 195 202 208 214 227 243 244 242 239 243 245 246 252 262 261 264 267 265 268 265 277 276 275 268 276 286 286 279 279 289 301 292 295 298 289 286 281 280
148 170 178 187 193 207 213 214 229 235 243 252 254 240 233 238 246 240 236 247 253 264 266 262 260 260 272 269 259 263 265 280 276 277 281 285 296 296 291 286 280 279 280
172 171 176 193 204 226 232 237 222 240 259 258 261 266 267 266 267 263 263 254 239 240 246 248 254 251 255 261 273 276 273 269 276 257 259 277 274 284 283 278 284 287 286
172 184 205 197 219 239 248 250 248 233 239 248 247 248 246 245 251 237 253 266 271 273 254 235 238 245 256 248 271 279 274 271 270 271 277 271 270 273 270 272 282 282 283
192 192 199 212 226 239 251 254 253 245 240 251 252 253 253 256 251 256 247 247 251 257 267 275 269 261 255 254 251 256 255 259 265 261 251 265 263 265 269 266 274 281 287
195 208 217 224 229 244 258 260 255 251 260 259 258 257 256 252 252 262 260 251 251 249 261 271 273 272 272 272 269 264 262 266 271 275 269 271 263 269 256 265 276 285 285
194 217 243 234 239 246 251 259 259 242 253 259 259 258 261 260 253 252 251 250 257 260 258 264 267 272 277 280 277 276 277 272 269 277 258 255 263 257 282 257 268 278 293